logo tempoitalia

Diretta Meteo Yenbo, Arabia Sauditalunedì 31 agosto ore 08:00

Mappa
Sereno 30 °C Sereno 24 Ore: T.min 29 T.max 45
Ponente Ovest Km/h 7.4 Punto di rugiada: 17 °C Umidità: 45% Visibilità: 10 Km
Il sole sorge alle: 06:08 Il sole tramonta alle: 18:47
31 Agosto 2026 08:00 tempo osservato: Sereno Sereno 30 45 1003 vento: Nord O 7.4
31 Agosto 2026 07:00 tempo osservato: Sereno Sereno 29 54 1002 vento: Nord O 18.5
31 Agosto 2026 06:00 tempo osservato: Sereno Sereno 29 58 1002 vento: Nord O 14.8
31 Agosto 2026 05:00 tempo osservato: Sereno Sereno 29 37 1002 vento: Nord O 11.1
31 Agosto 2026 04:00 tempo osservato: Sereno Sereno 31 33 1002 vento: Nord N 3.7
31 Agosto 2026 03:00 tempo osservato: Sereno Sereno 31 37 1002 vento: Nord N 3.7
31 Agosto 2026 02:00 tempo osservato: Sereno Sereno 32 38 1002 vento: Nord O 14.8
31 Agosto 2026 01:00 tempo osservato: Sereno Sereno 33 33 1003 vento: Nord O 13
31 Agosto 2026 00:00 tempo osservato: Sereno Sereno 34 36 1003 vento: Nord O 13
30 Agosto 2026 23:00 tempo osservato: Sereno Sereno 35 26 1003 vento: Nord O 13
30 Agosto 2026 22:00 tempo osservato: Sereno Sereno 35 23 1003 vento: Nord O 14.8
30 Agosto 2026 21:00 tempo osservato: Sereno Sereno 37 19 1002 vento: Nord O 9.3
30 Agosto 2026 20:00 tempo osservato: Sereno Sereno 39 16 1001 vento: Nord O 14.8
30 Agosto 2026 19:00 tempo osservato: Sereno Sereno 40 23 1001 vento: Nord O 24
30 Agosto 2026 18:00 tempo osservato: Sereno Sereno 39 35 1001 vento: Nord O/SO 33.3
30 Agosto 2026 17:00 tempo osservato: Sereno Sereno 40 31 1001 vento: Nord O 35.2
30 Agosto 2026 16:00 tempo osservato: Sereno Sereno 42 26 1001 vento: Nord O/SO 35.2
30 Agosto 2026 15:00 tempo osservato: Sereno Sereno 44 21 1001 vento: Nord O/SO 37
30 Agosto 2026 14:00 tempo osservato: Sereno Sereno 45 9 1001 vento: Nord O 24
30 Agosto 2026 13:00 tempo osservato: Sereno Sereno 44 19 1001 vento: Nord O 35.2
30 Agosto 2026 12:00 tempo osservato: Sereno Sereno 43 18 1002 vento: Nord O/SO 27.8
30 Agosto 2026 11:00 tempo osservato: Sereno Sereno 41 16 1002 vento: Nord O 11.1
30 Agosto 2026 10:00 tempo osservato: Sereno Sereno 39 21 1003 vento: Nord O/SO 14.8
30 Agosto 2026 09:00 tempo osservato: Sereno Sereno 36 28 1002 vento: Nord O/SO 9.3